Skip Page Navigation
NASA JPL Caltech
NASA Logo - Jet Propulsion Laboratory + View the NASA Portal
+ Center for Near-Earth Object Studies
JPL Home Earth Solar System Stars & Galaxies Technology
JPL Solar System Dynamics
BODIES ORBITS EPHEMERIDES TOOLS PHYSICAL DATA DISCOVERY FAQ SITE MAP
IMPORTANT: The SSD Announcement email list is now available. Major changes are coming in the near future, including possible hostname and/or URL changes. To be notified of such changes, subscribe to this email list.

Please visit this page for more details.


JPL Small-Body Database Browser
Search: [ help ]  
1889 Pakhmutova (1968 BE)
Classification: Main-belt Asteroid          SPK-ID: 2001889
Ephemeris | Orbit Diagram | Orbital Elements | Mission Design | Physical Parameters | Discovery Circumstances | Close-Approach Data ]

[ show orbit diagram ]
Orbital Elements at Epoch 2459000.5 (2020-May-31.0) TDB
Reference: JPL 34 (heliocentric ecliptic J2000)
 Element Value Uncertainty (1-sigma)   Units 
e .1149844968887105 3.8012e-08  
a 3.0857710418495 1.4952e-08 au
q 2.730955211088683 1.1801e-07 au
i 13.18050577688568 4.3228e-06 deg
node 55.10464947006796 1.9026e-05 deg
peri 84.14456109274813 2.6898e-05 deg
M 215.0311962582449 1.8966e-05 deg
tp 2459797.789473104788
(2022-Aug-06.28947310)
0.00010583 TDB
period 1979.903282012477
5.42
1.4391e-05
3.94e-08
d
yr
n .1818270636099342 1.3216e-09 deg/d
Q 3.440586872610317 1.6671e-08 au
  Orbit Determination Parameters
   # obs. used (total)      2315  
   data-arc span      19550 days (53.52 yr)  
   first obs. used      1966-10-20  
   last obs. used      2020-04-29  
   planetary ephem.      DE431  
   SB-pert. ephem.      SB431-N16  
   condition code      0  
   norm. resid. RMS      .43788  
   source      ORB  
   producer      Otto Matic  
   solution date      2020-May-20 01:32:04  

Additional Information
 Earth MOID = 1.78424 au 
 Jupiter MOID = 1.75793 au 
 T_jup = 3.176 
[ show covariance matrix ]

Ephemeris | Orbit Diagram | Orbital Elements | Mission Design | Physical Parameters | Discovery Circumstances | Close-Approach Data ]

Physical Parameter Table
Parameter Symbol Value Units Sigma Reference Notes
absolute magnitude H 11.1   n/a MPO347532  
diameter diameter 35.243 km 0.626 urn:nasa:pds:neowise_diameters_albedos::2.0[mainbelt] (http://adsabs.harvard.edu/abs/2012ApJ...759L...8M)  
rotation period rot_per 17.490 h n/a LCDB (Rev. 2019-August); Warner et al., 2009 Published Reference List:
[Warner, B.D. (2006) Minor Planet Bull. 33, 82-84.]
[Hanus, J.; Durech, J.; Broz, M.; Warner, B.D.; et al. (2011) Astron. Astrophys. 530, A134.]
[Waszczak, A.; Chang, C.-K.; Ofeck, E.O.; Laher, F.; et al. (2015) Astron. J. 150, A75.]
geometric albedo albedo 0.057   0.013 urn:nasa:pds:neowise_diameters_albedos::2.0[mainbelt] (http://adsabs.harvard.edu/abs/2012ApJ...759L...8M)  

1889 Pakhmutova (1968 BE)          Discovered 1968-Jan-24 by Chernykh, L. at Nauchnyj
Reference: DISCOVERY.DBLast Updated: 2003-08-29

[ show close-approach data ]
Alternate Designations
 1968 BE = 1942 JM = 1966 US = 1969 JM 
Ephemeris | Orbit Diagram | Orbital Elements | Mission Design | Physical Parameters | Discovery Circumstances | Close-Approach Data ]
ABOUT SSD CREDITS/AWARDS PRIVACY/COPYRIGHT GLOSSARY LINKS
FirstGov 2020-May-30 16:26 UT
(server date/time)  
NASA Home Page
Site Manager:   Ryan S. Park
Webmaster  Alan B. Chamberlin